Regional Weather Roundup
Issued by NWS Upton, NY

Current Version | Previous Version | Text Only | Print | Product List | Glossary Off
Versions: 1 2 3 4 5 6 7 8 9 10 11 12 13 14 15 16 17 18 19 20 21 22 23 24 25 26 27 28 29 30 31 32 33 34 35 36 37 38 39 40 41 42 43 44 45 46 47 48 49 50
000 ASUS41 KOKX 270604 RWROKX REGIONAL WEATHER ROUNDUP NATIONAL WEATHER SERVICE NEW YORK NY 200 AM EDT TUE SEP 27 2016 NOTE: "FAIR" INDICATES FEW OR NO CLOUDS BELOW 12,000 FEET WITH NO SIGNIFICANT WEATHER AND/OR OBSTRUCTIONS TO VISIBILITY. NYZ071-072-176-178-NJZ106-104-270700- NEW YORK CITY METRO AREA CITY SKY/WX TMP DP RH WIND PRES REMARKS Central Park CLOUDY 69 61 75 MISG 29.96F LaGuardia APRT LGT RAIN 71 62 73 S10 29.92F Kennedy INTL CLOUDY 71 64 78 S15 29.95F Newark/Liberty LGT RAIN 68 61 78 S7 29.93F Bronx Bot Gard N/A 68 59 73 CALM 29.94F Wall St Helipt CLOUDY 72 64 78 SW8 29.94F Teterboro CLOUDY 69 60 73 S8 29.92F $$ NYZ177-179-078>081-270700- LONG ISLAND NEW YORK CITY SKY/WX TMP DP RH WIND PRES REMARKS Farmingdale CLOUDY 70 62 76 S14 29.95F MacArthur/ISP CLOUDY 69 62 78 S8 29.95F Shirley CLOUDY 69 61 75 S10 29.97F Riverhead NOT AVBL Westhampton CLOUDY 68 60 75 S12 29.99F Southampton N/A 68 63 83 S15 29.94F Bridgehampton N/A 66 61 82 W2 29.83F East Hampton CLOUDY 67 60 76 S7G18 29.97F Montauk N/A 68 60 75 S12G20 29.99F $$ NYZ052-065-067-270700- HUDSON VALLEY CITY SKY/WX TMP DP RH WIND PRES REMARKS White Plains CLOUDY 68 61 78 S10G18 29.94F Newburgh LGT RAIN 63 59 88 CALM 29.96S Montgomery LGT RAIN 62 58 86 S3 29.94F Poughkeepsie CLOUDY 62 58 86 SE3 29.93F Albany RAIN 59 54 83 S9 29.92S $$ NJZ001-105-106-008-010-013-015-019>022-104-270700- NEW JERSEY CITY SKY/WX TMP DP RH WIND PRES REMARKS Newark/Liberty LGT RAIN 68 61 78 S7 29.93F Teterboro CLOUDY 69 60 73 S8 29.92F Caldwell LGT RAIN 67 59 75 W3 29.94F Morristown HVY RAIN 63 61 94 CALM 29.95R Somerville LGT RAIN 63 60 90 CALM 29.93S FOG Linden NOT AVBL Sussex HVY RAIN 60 59 96 CALM 29.95S FOG Abdover N/A 60 58 92 CALM 29.95F Trenton LGT RAIN 65 61 87 SW7 29.94S Millville CLOUDY 69 68 96 SW5 29.96S Atlantic City CLOUDY 71 67 87 SW9 29.95S Wrightstown CLOUDY 66 64 94 SW6 29.92S Toms River LGT RAIN 67 66 97 S6 29.95F FOG Belmar CLOUDY 69 64 84 S7 29.95F $$ PAZ047>061-062-071-270700- EASTERN PENNSYLVANIA CITY SKY/WX TMP DP RH WIND PRES REMARKS Philadelphia CLOUDY 69 64 84 SW10 29.95F Allentown RAIN 61 57 88 CALM 29.95F FOG Scranton CLOUDY 59 58 96 SW3 29.94F FOG $$ CTZ002-004>006-009-010-012-RIZ004-006-007-MAZ004-011-015-270700- SOUTHERN NEW ENGLAND IN CT CITY SKY/WX TMP DP RH WIND PRES REMARKS Bradley INTL CLOUDY 63 53 70 S5 29.95F Hartford CLOUDY 65 56 72 S6 29.94F Danbury LGT RAIN 63 59 87 S3 29.95F Wtrbury/Oxford N/A 63 57 82 S10 29.97F Bridgeport CLOUDY 67 63 87 S14 29.95F Meriden CLOUDY 68 58 70 S6 29.95F New Haven CLOUDY 69 60 73 S10G20 29.95F Chester CLOUDY 66 59 77 S7 29.97F Groton CLOUDY 69 60 73 S20 29.96F Wilimantic CLOUDY 61 54 77 CALM 29.98F IN RI CITY SKY/WX TMP DP RH WIND PRES REMARKS Providence CLOUDY 62 53 72 S7 29.98F Block Island MOCLDY 66 60 81 S13 29.98F Westerly MOCLDY 68 57 68 S14G22 29.98F IN MA CITY SKY/WX TMP DP RH WIND PRES REMARKS Boston CLOUDY 59 51 75 S7 29.99F Worcester CLOUDY 57 49 74 S8 29.98S Westfield CLOUDY 61 53 75 S5 29.94F Provincetown CLOUDY 64 54 69 S9 30.01F Nantucket CLOUDY 65 56 72 S14 30.03F $$ ANZ330-335-338-340-345-350-353-355-270700- COASTAL MARINE OBSERVATIONS STATION/POSITION TIME SKY/WX TEMP WIND PRES VSBY WAVE AIR SEA DIR/SP/G HT/PER (UTC) (F) (DEG/KT/KT) (MB) (MI) (FT/S) NY HARB ENTRANCE 0450 71 71 200/ 19/ 21 1014.5 5/ 6 20S FIRE ISLAND 0450 70 69 190/ 14/ 16 1015.1 4/ 5 GREAT SOUTH BAY 0530 70 69 220/ 14/ 17 N/A 23 SSW MONTAUK P 0450 68 68 200/ 19/ 23 1016.0 4/ 5 15 E BARNEGAT LI 0500 71 N/A 4/ 5 HUDSON CANYON 0450 71 69 1016.1 3/ 4 KINGS POINT 0524 69 72 1013.6 EXECUTION ROCKS 0545 70 180/ 12/ 16 N/A CENTRAL LI SOUND 0530 69 72 190/ 16/ 19 N/A 1/ 3 EASTERN LI SOUND NOT AVBL ROBBINS REEF 0524 69 180/ 14/ 16 1013.9 $$ >>>>>>>>>>>>>>>>>>>>>>>>>>>> KEY <<<<<<<<<<<<<<<<<<<<<<<<<<< > < > SKY/WX - Sky Condition/Present Weather < > TMP - Temperature in Fahrenheit < > DP - Dew Point in Fahrenheit < > RH - Relative Humidity in Percent < > WIND - Direction (from) and Speed in MPH < > PRES - Mean Sea Level Pressure (inches of Hg) < > WCI - Wind Chill Index < > VSB - VISIBILITY IN MILES < > HX - HEAT INDEX < > TC - TEMPERATURE IN CELSIUS < > VRB - VARIABLE WIND DIRECTION < > < >>>>>>>>>>>>>>>>>>>>>>>>>>>> KEY <<<<<<<<<<<<<<<<<<<<<<<<<<<

USA.gov is the U.S. government's official web portal to all federal, state and local government web resources and services.